BSAT-4B

Last updated on Sun Jun 21 2026 00:03:08 GMT+0000 (Coordinated Universal Time)

1 46112U 20056A 26171.41377874 .00000000 00000+0 00000+0 0 9993 2 46112 0.0101 187.4801 0004200 288.0580 51.8829 1.00268744 21428
UTC large
Height (km)
Speed (km/s)
/
Latitude / Longitude
Inclination (degrees)
Orbital Period (minutes)
Azimuth
Elevation
Range (km)
Doppler Factor

Next 0 passes for location: London (51.5072 / 0.1276)

No passes found over London.
BSAT-4B